Flight Track Log - Related Links

Times and Time Zones

All times are in EDT time to prevent confusion due to time zone crossing. See the EJA829P flight status page for this flight to view local times or setup timezone preferences in your user account.

Time Position Orientation Groundspeed Altitude Reporting Facility
EDT Latitude Longitude Course Direction KTS MPH feet Rate Location/Type
Wed 07:21:49 AM 42.0544 -80.2458 264° West 216 249 3,200  Level Cleveland Center
Wed 07:22:51 AM 42.0500 -80.3328 266° West 226 260 6,900 3,677 Climbing Cleveland Center
Wed 07:23:53 AM 42.0500 -80.4219 270° West 248 285 10,800 4,146 Climbing Cleveland Center
Wed 07:24:54 AM 42.0508 -80.5331 271° West 281 323 15,400 4,195 Climbing Cleveland Center
Wed 07:25:56 AM 42.0469 -80.6464 267° West 287 330 19,400 3,290 Climbing Cleveland Center
Wed 07:26:58 AM 42.0447 -80.7461 268° West 297 342 22,200 2,829 Climbing Cleveland Center
Wed 07:27:00 AM 42.0731 -80.8333 264° West  Level FlightAware Approximate
Wed 07:27:59 AM 42.0386 -80.8958 267° West 328 377 25,200  Level Cleveland Center
Wed 07:29:01 AM 42.0347 -81.0194 268° West 335 386 27,600 1,355 Climbing Cleveland Center
Wed 07:30:03 AM 42.0292 -81.1503 267° West 352 405 28,000 195 Climbing Cleveland Center
Wed 07:31:04 AM 42.0231 -81.2853 267° West 360 414 28,000  Level Cleveland Center
Wed 07:32:06 AM 42.0183 -81.4261 267° West 365 420 28,000  Level Cleveland Center
Wed 07:33:07 AM 42.0125 -81.5519 266° West 340 391 28,000  Level Cleveland Center
Wed 07:34:09 AM 42.0072 -81.6767 267° West 338 389 28,000  Level Cleveland Center
Wed 07:35:11 AM 42.0008 -81.7989 266° West 333 383 28,000  Level Cleveland Center
Wed 07:36:12 AM 41.9961 -81.9439 268° West 328 377 28,000  Level Cleveland Center
Wed 07:37:14 AM 41.9892 -82.0644 266° West 325 374 28,000  Level Cleveland Center
Wed 07:38:16 AM 41.9844 -82.1825 267° West 324 373 28,000  Level Cleveland Center
Wed 07:39:17 AM 41.9778 -82.3011 266° West 321 369 28,000  Level Cleveland Center
Wed 07:40:19 AM 41.9722 -82.4192 266° West 321 369 28,000  Level Cleveland Center
Wed 07:41:21 AM 41.9658 -82.5375 266° West 320 368 28,000 -339 Level Cleveland Center
Wed 07:42:23 AM 41.9597 -82.6556 266° West 319 367 27,300 -1,073 Descending Cleveland Center
Wed 07:43:24 AM 41.9533 -82.7814 266° West 334 384 25,800 -1,561 Descending Cleveland Center
Wed 07:44:26 AM 41.9450 -82.9331 266° West 338 389 24,100 -871 Descending Cleveland Center
Wed 07:45:28 AM 41.9378 -83.0558 266° West 334 384 24,000 -48 Descending Cleveland Center
Wed 07:46:30 AM 41.9314 -83.1767 266° West 327 376 24,000  Level Cleveland Center
Wed 07:47:32 AM 41.9242 -83.2961 265° West 325 374 24,000  Level Cleveland Center
Wed 07:48:33 AM 41.9169 -83.4142 265° West 321 369 24,000  Level Cleveland Center
Wed 07:49:36 AM 41.9106 -83.5317 266° West 318 366 24,000  Level Cleveland Center
Wed 07:50:37 AM 41.9031 -83.6500 265° West 318 366 24,000  Level Cleveland Center
Wed 07:51:39 AM 41.8956 -83.7683 265° West 318 366 24,000  Level Cleveland Center
Wed 07:52:41 AM 41.8867 -83.9103 265° West 318 366 24,000 -435 Level Cleveland Center
Wed 07:53:43 AM 41.8786 -84.0292 265° West 318 366 23,100 -1,210 Descending Cleveland Center
Wed 07:54:45 AM 41.8714 -84.1464 265° West 318 366 21,500 -1,463 Descending Cleveland Center
Wed 07:55:46 AM 41.8642 -84.2619 265° West 316 364 20,100 -732 Descending Cleveland Center
Wed 07:56:48 AM 41.8553 -84.3717 264° West 311 358 20,000 -48 Descending Cleveland Center
Wed 07:57:50 AM 41.8464 -84.5081 265° West 310 357 20,000  Level Cleveland Center
Wed 07:58:52 AM 41.8383 -84.6219 265° West 310 357 20,000 -726 Level Cleveland Center
Wed 07:59:54 AM 41.8319 -84.7339 266° West 306 352 18,500 -1,306 Descending Cleveland Center
Wed 08:00:56 AM 41.8231 -84.8497 264° West 308 354 17,300 -1,210 Descending Cleveland Center
Wed 08:01:58 AM 41.8147 -84.9636 264° West 309 356 16,000 -629 Descending Cleveland Center
Wed 08:03:00 AM 41.8067 -85.0747 264° West 307 353 16,000 -657 Level Cleveland Center
Wed 08:04:15 AM 41.7961 -85.2242 265° West 294 338 14,500 -1,103 Descending Chicago Center
Wed 08:05:16 AM 41.7881 -85.3317 264° West 294 338 13,500 -1,024 Descending Chicago Center
Wed 08:06:18 AM 41.7797 -85.4361 264° West 291 335 12,400 -1,210 Descending Chicago Center
Wed 08:07:20 AM 41.7717 -85.5378 264° West 282 325 11,000 -1,403 Descending Chicago Center
Wed 08:08:22 AM 41.7642 -85.6297 264° West 252 290 9,500 -1,756 Descending Chicago Center
Wed 08:09:23 AM 41.7556 -85.7347 264° West 242 278 7,400 -1,902 Descending Chicago Center
Wed 08:10:25 AM 41.7489 -85.8225 264° West 241 277 5,600 -1,500 Descending Chicago Center
Wed 08:11:27 AM 41.7403 -85.9075 262° West 237 273 4,300 -774 Descending Chicago Center
Wed 08:12:29 AM 41.7303 -85.9897 261° West 231 266 4,000 -146 Descending Chicago Center
Wed 08:13:30 AM 41.7211 -86.0706 261° West 225 259 4,000 -780 Level Chicago Center
Wed 08:14:32 AM 41.7067 -86.1467 256° West 219 252 2,400 -1,016 Descending Chicago Center
Wed 08:15:34 AM 41.7050 -86.2206 268° West 181 208 1,900 -532 Descending Chicago Center
Wed 08:16:36 AM 41.7039 -86.2636 268° West 140 161 1,300 -435 Descending Chicago Center
Wed 08:17:38 AM 41.7108 -86.2981 285° West 128 147 1,000 -290 Descending Chicago Center

Login

Don't have an account? Register now (free) for customized features, flight alerts, and more!